Findlay, OH

5:59 PM EDT on March 26, 2017 (GMT -0400)
Findlay

Weather History for KFDY - May, 2012

Change the Weather History Date:

Tuesday, May 15, 2012

  Actual Average Record
Temperature  
Mean Temperature 64 °F -  
Max Temperature 82 °F 70 °F 90 °F (1988)
Min Temperature 46 °F 49 °F 35 °F (1973)
Degree Days  
Heating Degree Days 1    
Growing Degree Days 14 (Base 50)    
Moisture  
Dew Point 42 °F    
Average Humidity 49    
Maximum Humidity 90    
Minimum Humidity 19    
Precipitation  
Precipitation 0.00 in - - ()
Sea Level Pressure  
Sea Level Pressure 29.94 in    
Wind  
Wind Speed 4 mph (WSW)    
Max Wind Speed 14 mph    
Max Gust Speed 21 mph    
Visibility 10 miles    
Events      
Averages and records for this station are not official NWS values.
T = Trace of Precipitation, MM = Missing Value Source: NWS Daily Summary

Daily Weather History Graph

Daily Weather History Graph

Search for Another Location

Airport or City:

Trip Planner

Search our weather history database for the weather conditions in past years. The results will help you decide how hot, cold, wet, or windy it might be!

Date:

Astronomy

May. 15, 2012 Rise Set
Actual Time 6:16 AM EDT 8:46 PM EDT
Civil Twilight 5:45 AM EDT 9:17 PM EDT
Nautical Twilight 5:06 AM EDT 9:56 PM EDT
Astronomical Twilight 4:22 AM EDT 10:40 PM EDT
Moon 3:20 AM EDT (5/15) 4:01 PM EDT (5/15)
Length of Visible Light 15h 32m
Length of Day
14h 29m
Waning Crescent, 24% of the Moon is Illuminated
May 15
Waning Crescent
May 20
New
May 28
First Quarter
Jun 4
Full
Jun 11
Last Quarter

Hourly Weather History & Observations

Time (EDT) Temp. Dew Point Humidity Pressure Visibility Wind Dir Wind Speed Gust Speed Precip Events Conditions
12:53 AM 57.9 °F 46.0 °F 65% 29.99 in 10.0 mi Calm Calm - N/A   Clear
1:53 AM 57.0 °F 46.0 °F 67% 29.98 in 10.0 mi Calm Calm - N/A   Clear
2:53 AM 55.9 °F 46.0 °F 69% 29.97 in 10.0 mi Calm Calm - N/A   Clear
3:53 AM 52.0 °F 46.0 °F 80% 29.97 in 10.0 mi Calm Calm - N/A   Clear
4:53 AM 52.0 °F 45.0 °F 77% 29.96 in 10.0 mi Calm Calm - N/A   Clear
5:53 AM 46.9 °F 44.1 °F 90% 29.97 in 10.0 mi SSE 3.5 mph - N/A   Clear
6:53 AM 50.0 °F 46.0 °F 86% 29.98 in 10.0 mi Calm Calm - N/A   Clear
7:53 AM 57.0 °F 48.9 °F 74% 29.98 in 10.0 mi Calm Calm - N/A   Clear
8:53 AM 64.0 °F 53.1 °F 67% 29.99 in 10.0 mi SW 4.6 mph - N/A   Clear
9:53 AM 69.1 °F 53.1 °F 57% 29.99 in 10.0 mi West 6.9 mph - N/A   Clear
10:53 AM 73.0 °F 48.9 °F 42% 29.98 in 10.0 mi West 6.9 mph - N/A   Clear
11:53 AM 75.9 °F 39.9 °F 27% 29.98 in 10.0 mi WNW 10.4 mph - N/A   Clear
12:53 PM 78.1 °F 37.0 °F 23% 29.96 in 10.0 mi West 8.1 mph - N/A   Clear
1:53 PM 80.1 °F 37.0 °F 21% 29.93 in 10.0 mi WNW 9.2 mph 19.6 mph N/A   Clear
3:53 PM 82.0 °F 37.0 °F 20% 29.90 in 10.0 mi West 13.8 mph 19.6 mph N/A   Clear
4:53 PM 81.0 °F 35.1 °F 19% 29.89 in 10.0 mi NW 9.2 mph - N/A   Clear
5:53 PM 81.0 °F 36.0 °F 20% 29.89 in 10.0 mi West 13.8 mph 20.7 mph N/A   Clear
6:53 PM 80.1 °F 35.1 °F 20% 29.88 in 10.0 mi WSW 11.5 mph - N/A   Clear
7:53 PM 75.9 °F 37.0 °F 24% 29.87 in 10.0 mi WSW 9.2 mph - N/A   Clear
8:53 PM 68.0 °F 39.0 °F 35% 29.87 in 10.0 mi SSW 5.8 mph - N/A   Clear
9:53 PM 63.0 °F 41.0 °F 45% 29.86 in 10.0 mi South 6.9 mph - N/A   Clear
10:53 PM 62.1 °F 39.9 °F 44% 29.87 in 10.0 mi SSW 8.1 mph - N/A   Clear
11:53 PM 61.0 °F 39.0 °F 44% 29.88 in 10.0 mi SSW 8.1 mph - N/A   Clear